Regional Weather Roundup
Issued by NWS

Home | Current Version | Previous Version | Text Only | Print | Product List | Glossary On
Versions: 1 2 3 4 5 6 7 8 9 10 11 12 13 14 15 16 17 18 19 20 21 22 23 24 25 26 27 28 29 30 31 32 33 34 35 36 37 38 39 40 41 42 43 44 45 46 47 48 49 50
000
ASUS42 KTBW 261510
RWRFL
FLORIDA REGIONAL WEATHER ROUNDUP
NATIONAL WEATHER SERVICE TAMPA BAY RUSKIN FL
1000 AM EST WED NOV 26 2014

NOTE: "FAIR" INDICATES FEW OR NO CLOUDS BELOW 12,000 FEET WITH NO
SIGNIFICANT WEATHER AND/OR OBSTRUCTIONS TO VISIBILITY.


FLZ001>010-012>015-112-114-115-261600-
PANHANDLE FLORIDA

CITY           SKY/WX    TMP DP  RH WIND       PRES   REMARKS
PENSACOLA      SUNNY     48  30  49 NW8       30.25R WCI  44
PENSACOLA NAS  SUNNY     49  33  54 NW9       30.26R WCI  45
MILTON NAS     SUNNY     48  29  47 VRB7      30.25R WCI  45
CRESTVIEW      SUNNY     49  31  49 NW7       30.24R
DUKE FIELD     MOSUNNY   47  31  53 NW8       30.22R WCI  43
VALPARAISO     MOSUNNY   49  31  50 N10       30.23R WCI  45
MARY ESTHER    SUNNY     50  25  37 N13       30.23R WCI  45
TRI COUNTY     FAIR      48  35  60 VRB6      30.22R
PANAMA CITY    FAIR      48  35  60 NW12      30.21R WCI  43
TYNDALL AFB    SUNNY     51  37  58 N12       30.22R
APALACHICOLA   MOSUNNY   54  39  57 N14       30.20R

STATION/POSITION SKY/WX   TEMP    WIND        PRES    WAVE   SWELL
                          AIR SEA DIR/SP/G            HT/PER HT/PER
                          (F)     (DEG/KT/KT) (MB)    (FT/S) (FT/S)
30.1N   87.6W              51 67  340/ 10/ 14 1024.3R   2/ 3
29.2N   88.2W              57 70  340/ 12/ 16 1025.6R   4/ 5
28.7N   86.0W              62 76  350/ 23/ 27 1022.4    8/ 7
PANAMA CITY BEAC           48 63  320/  7/ 10 1023.2R
CAPE SAN BLAS    NOT AVBL
TOWER C                    51     330/ 20/ 22 1022.3R
28.5N   84.5W              60 71  340/ 19/ 25 1021.4R   6/ 7

$$
FLZ011-016>038-118-127-128-134-139-239-261600-
NORTH FLORIDA

CITY           SKY/WX    TMP DP  RH WIND       PRES   REMARKS
MARIANNA       SUNNY     49  40  71 NW12      30.20R WCI  44
TALLAHASSEE    MOSUNNY   52  41  66 NW9       30.18R
PERRY          MOSUNNY   51  47  86 NW8       30.17R
CROSS CITY       N/A     52  48  86 NW8       30.17R
LAKE CITY      CLOUDY    50  46  87 W10       30.15R
GAINESVILLE    CLOUDY    50  47  89 NW6       30.14S
MAYPORT NAS    CLOUDY    51  50  96 VRB7      30.12R
JACKSONVILLE   CLOUDY    51  50  96 W7        30.11S
JAX NAS        CLOUDY    53  49  86 W7        30.12R
JAX CRAIG      CLOUDY    51  49  92 W8        30.12R
JAX CECIL      PTSUNNY   50  48  93 NW5       30.13R
FERNANDINA BEA CLOUDY    55  52  88 W12       30.10R
ST AUGUSTINE   LGT RAIN  51  49  92 W12G17    30.13R FOG

STATION/POSITION SKY/WX   TEMP    WIND        PRES    WAVE   SWELL
                          AIR SEA DIR/SP/G            HT/PER HT/PER
                          (F)     (DEG/KT/KT) (MB)    (FT/S) (FT/S)
SHELL POINT                48     320/  7/ 14   N/A
KEATON BEACH               52     310/  7/ 11 1021.9R
CEDAR KEY                  51     340/  7/ 10 1021.3R
FERNANDINA                 51 62  290/ 12/ 15 1019.0S
30.7N   81.3W                 63                N/A     4/ 9
MAYPORT                    51 63  290/ 12/ 15   N/A
31.4N   80.9W              54 64  290/ 21/ 27 1017.0R   4/ 5   2/ 8
ST AUGUSTINE               51     310/ 15/ 19 1020.3R

$$
FLZ040-043>046-052-053-057-058-063-144-261600-
INTERIOR CENTRAL FLORIDA

CITY           SKY/WX    TMP DP  RH WIND       PRES   REMARKS
OCALA          CLOUDY    52  46  82 N9        30.14S
THE VILLAGES     N/A     52  50  93 NW10      30.05R
LEESBURG       CLOUDY    52  50  93 NW10      30.15R
SANFORD        CLOUDY    54  52  93 NW14      30.11R
ORLANDO INTL   LGT RAIN  55  53  93 NW13      30.13R
KISSIMMEE      CLOUDY    55  55 100 NW12      30.12R
WINTER HAVEN   CLOUDY    54  52  93 NW13G23   30.16R
LAKELAND       LGT RAIN  54  52  94 MISG      30.15R
BARTOW         CLOUDY    54  54 100 NW15G23   30.15R
OKEECHOBEE     LGT RAIN  59  59 100 NW9       30.09R

$$
FLZ041-047-054-059-064-141-147-261600-
EAST CENTRAL FLORIDA

CITY           SKY/WX    TMP DP  RH WIND       PRES   REMARKS
ORMOND BEACH   RAIN      52  50  93 NW9       30.09R FOG
DAYTONA BEACH  LGT RAIN  54  52  93 NW13      30.10R
DELAND         CLOUDY    52  50  93 W15       30.14R
NEW SMYRNA BEA PTSUNNY   54  54 100 MISG      30.12R
JFK SPACE CTR  LGT RAIN  57  54  91 NW15      30.09R
TITUSVILLE     CLOUDY    55  54  94 N15       30.10R FOG
CAPE CANAVERAL LGT RAIN  58  55  91 NW7       30.06S
PATRICK AFB    LGT RAIN  58  56  94 NW13      30.07R
MELBOURNE      LGT RAIN  59  56  89 NW7G17    30.07R
VERO BEACH     LGT RAIN  60  58  92 NW7       30.08R
FT PIERCE      CLOUDY    61  59  93 NW8       30.07R
STUART         LGT RAIN  64  63  94 NW14      30.08R FOG

STATION/POSITION SKY/WX   TEMP    WIND        PRES    WAVE   SWELL
                          AIR SEA DIR/SP/G            HT/PER HT/PER
                          (F)     (DEG/KT/KT) (MB)    (FT/S) (FT/S)
28.5N   80.2W                 78  320/ 19/ 25 1017.3R
28.9N   78.5W              76 78  230/ 14/ 17 1014.7R   9/ 7   8/ 7
TRIDENT PIER               58 70  330/  7/ 12 1017.2S
28.4N   80.5W                 70                N/A     2/ 9
27.6N   80.2W                 78                N/A     3/ 4

$$
FLZ050-056-061-142-242-148-248-149-249-151-251-155-255-
160-260-261600-
WEST CENTRAL FLORIDA

CITY           SKY/WX    TMP DP  RH WIND       PRES   REMARKS
CRYSTAL RIVER  CLOUDY    52  46  82 NW5       30.16S
INVERNESS      CLOUDY    52  50  93 N3        30.16R
BROOKSVILLE    CLOUDY    53  49  86 NW10      30.16S
ZEPHYRHILLS    CLOUDY    52  50  93 NW8       30.17R
CLEARWATER     CLOUDY    56  53  90 N10       30.16R
TAMPA INTL     CLOUDY    56  52  86 N9        30.17R
TAMPA EXEC     CLOUDY    55  54  94 N9        30.16R
PLANT CITY     CLOUDY    55 N/A N/A N13G18    30.17R
MACDILL AFB    CLOUDY    55  55 100 N12G18    30.16R
PETER O KNIGHT CLOUDY    57  54  88 N6        30.17R
ST PETERSBURG  CLOUDY    58  53  84 N8        30.15R
SARASOTA       LGT RAIN  57  55  93 N12G21    30.14R
VENICE         LGT RAIN  59  55  88 N13G21    30.16R

STATION/POSITION SKY/WX   TEMP    WIND        PRES    WAVE   SWELL
                          AIR SEA DIR/SP/G            HT/PER HT/PER
                          (F)     (DEG/KT/KT) (MB)    (FT/S) (FT/S)
CEDAR KEY                  51     340/  7/ 10 1021.3R
28.5N   84.5W              60 71  340/ 19/ 25 1021.4R   6/ 7
27.3N   84.3W                 78                N/A    10/ 8
CLEARWATER BEACH           59 65  340/ 19/ 23 1020.5R
MIDDLE TAMPA BAY           57     360/ 17/ 24 1021.2S
VENICE                     59 69  360/ 16/ 22 1020.9R

$$
FLZ066-069-070-075>078-162-262-165-265-261600-
SOUTHWEST FLORIDA AND KEYS

CITY           SKY/WX    TMP DP  RH WIND       PRES   REMARKS
PUNTA GORDA    CLOUDY    61  57  87 N13       30.16R
FT MYERS       CLOUDY    62  58  86 NW15G23   30.13R
SOUTHWEST INTL CLOUDY    61  57  87 NW13G20   30.13R
NAPLES         LGT RAIN  63  59  87 NW13G21   30.14R
MARCO ISLAND   CLOUDY    63  61  94 NW9       30.13R
MARATHON       CLOUDY    72  71  97 NW13G23   30.09R
KEY WEST NAS   CLOUDY    70  68  93 N20G30    30.09R
KEY WEST INTL  CLOUDY    72  68  87 N20G29    30.10R

STATION/POSITION SKY/WX   TEMP    WIND        PRES    WAVE   SWELL
                          AIR SEA DIR/SP/G            HT/PER HT/PER
                          (F)     (DEG/KT/KT) (MB)    (FT/S) (FT/S)
VENICE                     59 69  360/ 16/ 22 1020.9R
NAPLES                     65 77  330/ 21/ 25 1021.0R
26.0N   85.6W              69 80  340/ 21/ 27 1021.3R   8/ 8   5/ 8
DRY TORTUGAS               71     360/ 23/ 24 1019.3R
NW FL BAY                  76     290/ 14/ 26 1017.5R
SAND KEY                   71     350/ 24/ 27 1019.4R
SOMBRERO KEY               72     330/ 24/ 26 1019.2R
LONG KEY                   80 79  210/ 12/ 14 1018.1R
MOLASSES REEF              79 78  210/ 13/ 15 1017.6R

$$
FLZ067-068-071>074-168-172>174-261600-
SOUTHEAST FLORIDA

CITY           SKY/WX    TMP DP  RH WIND       PRES   REMARKS
W PALM BEACH   LGT RAIN  68  66  93 NW20      30.05R
FT LAUDER-EXEC RAIN      76  73  91 NW18G25   30.05R
FT LAUDERDALE  CLOUDY    79  74  84 W13G21    30.04R
POMPANO BEACH  CLOUDY    76  73  91 W10       30.05R
PEMBROKE PINES LGT RAIN  78  73  84 W14G23    30.06R
OPA LOCKA      LGT RAIN  78  73  84 W13       30.07R
MIAMI          CLOUDY    79  73  82 W12       30.06R
WEST KENDALL   LGT RAIN  76  73  91 W14       30.07R
HOMESTEAD      HVY RAIN  79  73  83 W15G23    30.06R

STATION/POSITION SKY/WX   TEMP    WIND        PRES    WAVE   SWELL
                          AIR SEA DIR/SP/G            HT/PER HT/PER
                          (F)     (DEG/KT/KT) (MB)    (FT/S) (FT/S)
PORT EVERGLADES            78     260/ 12/ 16 1017.4
VIRGINIA KEY               80 77  220/ 14/ 17 1017.6S
LAKE WORTH                 69 78  290/ 19/ 25 1017.4R
FOWEY ROCKS                81 79  210/ 22/ 23 1017.5



USA.gov is the U.S. government's official web portal to all federal, state and local government web resources and services.